Theta_e
277 277 277 276 276 276 276 276 276 276 275 275 275 275 275 275 275 275 274 274 274 274 274 274 274 274 274 275 275 276 277 279 280 280 283 286 287 290 293 296 296 296
277 276 276 276 276 275 275 275 275 275 275 275 275 275 275 275 274 274 274 274 274 273 273 273 273 274 274 274 274 275 276 277 278 279 282 284 285 288 292 295 296 296
276 276 275 275 275 275 275 275 275 274 274 274 274 274 274 274 274 274 274 273 273 273 273 273 273 273 273 273 274 274 275 276 277 280 281 282 284 287 290 294 295 295
275 275 274 274 274 274 274 274 274 274 274 274 274 274 274 274 274 273 273 273 273 273 272 272 272 272 273 273 273 274 274 275 277 279 281 281 283 286 289 292 295 295
274 274 274 274 274 273 273 273 273 273 274 274 274 274 274 273 273 273 273 273 273 272 272 272 272 272 272 272 273 273 274 276 277 279 280 281 283 285 288 291 294 295
274 273 273 273 273 273 273 273 273 273 273 273 273 273 273 273 273 273 272 272 272 272 272 272 271 272 272 272 272 273 275 276 277 279 280 281 282 285 287 289 293 295
273 273 272 272 272 272 272 272 273 273 273 273 273 273 272 272 272 272 272 272 272 271 271 271 271 271 272 272 272 273 274 275 276 277 279 280 282 284 286 289 292 294
272 272 272 272 272 272 272 272 272 272 272 272 272 272 272 272 272 272 272 272 271 271 271 271 271 271 272 272 272 272 273 273 274 276 278 280 282 283 285 288 292 294
272 271 271 271 271 272 272 272 272 272 272 272 272 272 272 272 272 272 271 271 271 271 271 271 271 272 272 272 272 272 272 273 274 276 278 279 281 282 283 286 291 293
271 271 271 271 271 271 271 271 271 271 271 271 271 271 271 271 271 271 270 270 270 270 270 271 271 272 272 272 273 273 273 274 275 276 278 279 280 281 282 285 289 292
271 271 271 271 271 271 271 271 271 271 271 271 270 270 270 270 269 270 270 269 270 270 270 271 271 271 272 272 273 274 274 274 275 276 277 278 279 280 281 283 287 291
270 270 270 270 270 270 270 270 270 270 270 269 269 269 269 269 268 269 269 269 269 269 270 270 270 271 271 271 272 273 273 273 274 274 275 276 278 279 281 282 285 289
270 270 269 269 270 270 270 270 269 269 269 268 268 268 268 268 268 268 268 268 268 269 269 270 270 270 271 271 271 272 272 273 273 274 275 276 277 279 281 282 284 288
269 269 269 269 269 269 269 268 268 268 267 267 267 267 267 267 267 267 267 268 268 268 269 269 270 270 270 271 271 272 272 272 273 274 275 276 278 279 281 282 285 287
268 268 268 268 268 268 267 267 267 266 266 266 266 266 266 266 266 267 267 267 267 268 269 269 270 270 270 271 271 272 272 272 273 274 275 277 278 279 280 282 285 287
268 268 268 268 267 266 266 266 265 265 265 265 265 265 266 266 266 266 267 267 267 268 269 269 270 270 271 271 272 273 274 274 274 275 276 277 278 279 280 282 285 287
267 267 267 266 266 265 265 265 265 265 265 265 265 265 265 266 266 266 267 267 267 268 269 270 270 270 271 272 273 274 275 275 276 276 277 277 278 279 281 282 283 286
266 266 265 265 264 264 264 264 264 264 264 265 265 265 266 266 266 266 267 267 268 268 269 270 270 271 272 273 274 274 275 275 276 276 276 277 278 279 281 282 283 285
265 265 264 264 264 264 264 264 264 264 264 265 265 266 266 266 267 267 267 268 268 269 269 270 270 271 272 273 274 275 276 276 276 276 276 276 277 279 281 282 282 284
264 263 263 263 263 263 263 263 264 264 265 265 266 266 266 267 267 267 268 268 269 269 270 270 271 271 272 274 275 275 276 276 276 276 276 277 277 278 280 282 283 284
263 262 262 262 263 263 263 263 264 264 265 266 266 266 267 267 267 268 268 269 269 270 270 271 271 272 273 275 276 276 276 277 276 276 277 277 278 279 280 282 282 283
262 262 262 262 262 262 263 263 264 265 265 266 266 266 266 266 267 267 268 268 269 270 271 271 272 273 274 275 276 277 277 277 277 276 277 278 278 280 281 282 282 282
261 261 261 261 262 262 263 264 264 265 265 265 265 265 265 266 266 266 267 268 269 270 271 272 272 273 274 276 276 277 277 277 277 277 277 278 279 280 281 282 282 282
260 261 261 261 262 262 263 264 264 265 265 265 265 265 265 265 265 266 267 268 269 270 271 272 273 274 275 276 277 277 277 277 277 277 277 277 279 281 282 282 282 282
260 261 261 261 262 262 263 264 264 264 264 264 264 264 264 265 265 266 267 268 269 270 271 273 274 274 275 276 277 277 278 278 277 277 277 277 279 280 282 282 282 282
261 261 261 261 262 263 263 263 264 264 264 264 263 264 264 265 265 266 267 268 269 270 271 272 274 275 276 277 277 278 278 278 278 278 277 278 279 280 281 282 283 283
Wind_Speed
26 26 27 28 29 31 32 35 37 39 41 43 44 47 48 48 47 46 46 46 43 42 41 40 40 40 39 38 37 37 38 37 37 37 36 36 35 34 35 36 34 31
26 26 27 28 31 32 33 35 37 40 42 44 45 46 48 49 48 47 46 45 44 43 42 41 40 39 39 39 38 38 39 39 39 37 34 35 35 33 34 34 34 33
26 27 28 29 31 33 35 36 37 39 42 44 45 46 47 49 49 48 46 44 44 44 43 42 41 41 41 40 39 39 40 40 40 37 34 35 34 33 33 33 33 32
26 27 28 30 31 33 35 36 38 40 41 44 45 46 47 47 48 48 47 44 43 44 45 44 43 41 40 39 38 39 40 40 40 36 34 35 34 32 32 32 32 31
27 27 28 30 31 33 34 36 38 40 41 43 44 45 45 46 47 47 47 44 43 44 45 44 42 41 39 38 38 39 39 39 38 35 33 34 33 32 31 31 32 31
27 28 29 30 31 33 34 36 37 39 40 41 43 44 45 45 45 44 43 42 41 42 42 41 40 40 39 37 36 37 36 36 36 33 31 33 33 32 31 31 32 31
28 29 30 31 32 32 34 35 37 37 39 40 41 43 43 42 43 41 40 40 40 40 41 41 41 40 38 36 35 36 36 36 36 33 32 32 32 32 32 33 33 31
30 31 31 32 32 33 34 35 36 37 38 39 39 40 38 38 40 41 41 41 40 39 39 38 38 37 36 35 36 37 37 37 36 34 33 32 30 31 31 31 31 30
31 32 32 33 33 34 34 35 36 36 36 36 37 37 37 37 38 38 38 39 37 36 34 33 33 32 32 33 34 37 37 37 36 34 34 31 28 29 30 30 30 28
32 33 34 34 33 35 36 36 36 35 35 34 35 37 37 36 35 34 34 35 35 33 32 31 31 30 30 30 31 32 34 35 33 33 32 29 27 28 29 29 29 27
32 33 34 34 34 35 35 35 35 34 34 35 36 37 35 33 33 33 33 33 33 33 32 31 31 31 31 30 29 29 30 32 32 32 32 29 28 29 31 30 29 27
35 36 36 35 35 35 34 35 35 36 36 36 35 34 33 32 32 32 32 33 33 34 33 32 31 31 31 31 31 30 30 31 33 34 34 32 30 30 32 31 30 29
38 39 37 35 33 33 34 36 37 37 36 34 32 32 32 33 33 33 33 33 34 34 33 32 32 31 31 31 31 30 30 30 31 32 32 31 31 31 32 32 31 30
38 37 33 30 31 34 35 36 37 37 34 31 31 31 32 33 34 35 35 35 35 35 33 32 31 31 31 31 31 30 29 30 30 29 28 28 29 30 31 31 30 30
36 33 30 29 32 34 34 34 36 35 32 31 31 32 33 34 35 36 36 37 36 35 33 32 31 30 29 29 29 29 28 28 28 28 28 28 28 28 29 30 30 30
33 30 28 30 33 35 35 35 35 34 34 35 35 35 35 35 36 37 36 35 35 34 33 31 29 29 29 29 30 30 29 28 28 27 27 27 28 28 28 28 29 29
30 27 28 32 34 35 36 36 36 37 38 38 40 40 40 39 39 40 39 35 33 33 32 30 29 29 30 31 32 32 31 30 29 27 26 26 27 27 26 26 27 28
29 29 31 33 34 35 37 37 38 39 39 39 41 41 42 42 38 36 37 35 32 31 30 30 30 31 32 31 31 32 32 30 30 29 28 28 29 28 27 26 27 28
30 31 32 33 34 35 37 37 37 38 39 40 42 42 40 39 37 35 36 35 31 29 30 30 31 32 32 31 31 31 31 30 30 29 29 29 30 29 28 28 28 29
31 31 32 33 35 36 37 36 36 38 39 39 38 36 35 34 35 36 35 32 30 29 29 28 30 32 32 32 31 30 30 30 29 29 29 29 31 31 29 27 27 27
31 31 32 34 36 37 36 37 37 37 38 37 33 31 32 33 33 34 33 32 32 32 29 28 31 34 33 33 31 29 28 28 28 28 28 29 30 31 30 29 27 27
31 31 33 35 37 37 37 37 37 36 34 34 33 32 33 33 32 32 34 35 35 34 31 29 34 37 34 32 32 29 27 26 25 26 27 28 29 30 30 30 30 31
31 31 34 36 36 36 37 36 35 34 33 33 33 34 33 33 34 33 34 35 37 37 33 31 37 42 37 33 32 28 25 24 22 23 25 26 27 28 27 27 27 28
31 31 33 34 35 35 37 37 34 33 34 33 33 34 35 34 34 34 35 36 37 37 34 32 37 42 39 34 32 28 25 24 22 21 22 25 25 25 26 26 26 27
31 31 32 33 34 35 35 36 35 34 34 34 33 34 35 34 34 34 36 37 36 36 35 32 34 39 37 33 32 29 25 24 24 21 21 23 24 23 23 24 25 26
30 31 32 32 33 35 35 34 34 33 34 35 34 33 33 33 34 34 35 38 36 35 34 32 31 34 35 32 31 29 26 25 24 23 21 22 22 22 21 22 22 24
Wind_Direction
312 309 307 305 303 302 302 302 303 302 302 302 302 302 302 303 304 304 303 302 300 297 296 295 292 288 286 285 283 282 280 278 278 278 279 280 283 284 272 257 249 248
312 310 307 305 303 303 302 302 302 301 301 301 301 301 302 302 303 302 302 300 298 296 295 294 291 287 285 284 283 281 280 279 278 276 276 278 281 283 275 261 252 250
312 310 307 305 303 303 303 302 301 300 300 301 301 301 301 302 302 301 300 298 296 295 295 294 291 287 284 283 281 280 278 277 275 274 274 277 279 280 277 266 254 251
311 309 307 306 304 303 303 302 301 301 301 301 301 301 301 301 301 300 299 296 294 294 295 293 291 287 283 282 280 278 276 274 272 272 273 275 276 276 277 269 256 250
310 308 307 306 305 304 304 302 301 302 302 301 301 301 301 300 300 298 297 294 293 294 294 292 290 287 283 281 279 276 274 273 271 271 271 273 274 274 276 272 258 248
311 310 308 307 306 306 304 302 302 302 302 301 301 301 300 299 299 298 296 293 292 294 293 290 289 287 283 280 278 273 272 271 272 271 270 271 273 274 276 273 259 246
312 311 311 311 309 308 305 303 303 303 303 302 300 300 301 299 297 296 297 295 292 294 293 289 288 286 282 278 275 272 272 272 272 272 270 270 272 273 275 273 259 246
314 314 315 314 312 310 307 307 306 304 304 304 301 300 301 300 297 295 297 295 292 293 293 289 287 285 281 277 274 271 272 272 270 269 268 268 270 269 272 274 261 245
318 318 318 317 315 313 310 309 308 307 306 304 302 301 300 299 297 294 296 296 291 289 290 288 286 285 282 278 274 270 269 269 267 266 265 263 266 267 268 273 265 247
320 320 321 319 317 316 313 311 309 308 308 305 303 303 301 299 298 294 294 295 291 287 288 287 285 285 283 280 276 270 267 267 267 267 265 261 263 265 266 271 269 253
322 323 323 321 319 316 314 313 311 309 309 307 305 305 301 299 298 296 293 293 290 288 287 286 285 284 282 280 277 273 270 271 272 271 269 265 264 265 265 266 268 260
327 328 326 324 320 317 315 313 312 310 309 309 307 304 301 298 297 296 295 292 291 289 285 283 283 282 280 278 275 273 272 272 272 270 268 266 265 263 262 262 264 263
330 329 325 320 317 316 314 312 312 311 309 307 305 302 300 299 297 296 295 292 290 288 285 282 280 280 279 276 273 271 270 270 270 268 265 263 261 260 259 260 260 259
329 326 319 314 314 314 313 311 312 311 308 304 303 301 300 299 298 296 295 294 290 287 284 281 278 277 276 273 271 269 267 268 268 267 265 261 258 258 258 258 258 256
326 321 315 312 314 314 312 311 312 310 307 303 301 300 298 297 298 297 294 294 292 287 283 279 276 274 273 270 268 267 265 264 264 262 262 261 259 259 258 256 257 256
323 317 314 314 314 314 313 313 312 310 308 305 303 302 298 295 297 299 296 291 289 288 283 278 275 271 270 269 266 266 266 263 260 257 255 256 257 257 257 255 255 254
320 315 315 317 316 315 315 315 314 313 311 309 307 306 304 300 298 300 300 292 285 285 283 278 273 270 270 271 267 266 267 265 263 262 261 261 258 256 255 254 254 255
320 318 318 318 317 317 317 317 316 315 313 311 310 308 307 306 300 297 298 295 286 281 280 277 274 272 273 273 270 268 266 265 264 264 264 264 260 258 255 251 252 254
323 322 319 318 319 320 320 319 317 316 315 313 311 309 308 306 303 299 297 294 287 282 280 277 274 274 274 275 273 270 267 265 263 261 260 258 256 256 255 248 248 252
325 322 320 320 322 323 321 320 318 317 317 315 312 311 310 308 308 306 301 294 288 285 282 278 276 276 277 276 276 273 268 265 263 260 258 257 255 254 253 248 243 246
326 323 323 323 324 324 322 321 320 319 318 318 316 315 315 313 311 309 306 302 297 291 284 279 282 283 282 281 280 275 269 265 263 261 258 256 255 252 251 250 247 248
327 325 325 325 325 324 323 322 322 322 321 321 320 318 317 315 312 310 308 306 303 298 288 282 288 291 288 286 284 278 271 266 262 261 260 257 256 252 250 249 248 249
329 327 325 325 325 324 323 322 322 322 324 324 321 319 319 317 313 309 307 305 302 299 291 283 290 297 295 290 288 280 270 266 261 258 258 257 256 253 250 249 247 246
329 327 325 325 324 324 323 322 322 323 324 324 321 319 318 316 313 309 308 306 302 299 295 288 290 298 299 293 290 284 270 262 260 257 256 256 257 255 253 251 251 251
329 328 327 325 324 324 323 323 323 323 323 323 321 319 317 315 314 311 309 309 305 302 302 299 295 298 300 296 290 285 273 261 255 254 253 254 255 256 256 252 250 251
332 330 329 327 325 325 325 324 324 324 324 324 322 319 318 316 314 312 311 311 306 299 300 304 303 303 306 304 297 287 276 263 253 250 249 250 252 255 257 256 251 249